sat.trackr.live / text

‹ back to catalog

UNKNOWN

NORAD 87706

UNKNOWN UNKNOWN UNKNOWN

§ Identity

Operator
Country
Launch date
Launch site
Launch vehicle
Mass (kg)
RCS (m²)

External: N2YO · Heavens-Above

§ Orbital elements

Epoch: 2026-09-17T09:29:44.078784Z

Period
98.20 min
Inclination
98.6647°
Eccentricity
0.0102604
Mean motion
14.66370611 rev/d
Perigee alt
600.3 km
Apogee alt
745.0 km
Semi-major
7,050.8 km
B*
3.8689e-4
RAAN
104.3603°
Arg perigee
121.8568°
Mean anomaly
359.6698°
Rev number
61,933

§ Raw data

UNKNOWN1 87706U          26260.39564906  .00002253  00000+0  38689-3 0  99942 87706  98.6647 104.3603 0102604 121.8568 359.6698 14.66370611619334

JSON: /api/v1/satellites/87706 · /tle

For live sub-satellite position, see the globe view (requires WebGL).

§ Visibility from observer

Set your observer location to see the next 7 days of passes ≥ 10°. The values pass through the URL so the page stays shareable.

No JS? Fill the form by hand. The geolocation button needs JavaScript.